Wetterdaten: Montag, 21.02.2011
Datum Zeit Temp. I. Temp. A. Boden 5 cm Feuchte A. Sonne Luftdruck Regen Wind
21.02.2011 00:00 21,4 C -2,9 C -1,3 C 71 % 0 % 1010 hPa 0,0 l/m 8,9 km/h (2 Bft)
21.02.2011 00:03 21,4 C -2,9 C -1,1 C 71 % 0 % 1010 hPa 0,0 l/m 5,7 km/h (1 Bft)
21.02.2011 00:06 21,4 C -2,9 C -1,3 C 72 % 0 % 1010 hPa 0,0 l/m 7,4 km/h (2 Bft)
21.02.2011 00:09 21,4 C -2,9 C -1,3 C 71 % 0 % 1009 hPa 0,0 l/m 4,9 km/h (1 Bft)
21.02.2011 00:12 21,4 C -2,9 C -1,4 C 71 % 0 % 1009 hPa 0,0 l/m 10,0 km/h (2 Bft)
21.02.2011 00:16 21,4 C -2,9 C -1,5 C 71 % 0 % 1009 hPa 0,0 l/m 11,2 km/h (2 Bft)
21.02.2011 00:19 21,4 C -2,9 C -1,5 C 71 % 0 % 1009 hPa 0,0 l/m 9,0 km/h (2 Bft)
21.02.2011 00:22 21,4 C -2,9 C -1,4 C 72 % 0 % 1010 hPa 0,0 l/m 11,6 km/h (2 Bft)
21.02.2011 00:24 21,4 C -3,0 C -1,6 C 72 % 0 % 1010 hPa 0,0 l/m 12,8 km/h (3 Bft)
21.02.2011 00:27 21,4 C -3,0 C -1,5 C 72 % 0 % 1009 hPa 0,0 l/m 8,9 km/h (2 Bft)
21.02.2011 00:30 21,4 C -3,0 C -1,4 C 72 % 0 % 1009 hPa 0,0 l/m 7,1 km/h (2 Bft)
21.02.2011 00:34 21,4 C -3,0 C -1,6 C 72 % 0 % 1009 hPa 0,0 l/m 12,8 km/h (3 Bft)
21.02.2011 00:37 21,4 C -3,1 C -1,6 C 71 % 0 % 1009 hPa 0,0 l/m 13,8 km/h (3 Bft)
21.02.2011 00:40 21,4 C -3,1 C -1,5 C 71 % 0 % 1010 hPa 0,0 l/m 7,8 km/h (2 Bft)
21.02.2011 00:43 21,4 C -3,1 C -1,5 C 71 % 0 % 1010 hPa 0,0 l/m 11,3 km/h (2 Bft)
21.02.2011 00:46 21,4 C -3,1 C -1,7 C 71 % 0 % 1010 hPa 0,0 l/m 11,3 km/h (2 Bft)
21.02.2011 00:49 21,4 C -3,2 C -1,7 C 71 % 0 % 1009 hPa 0,0 l/m 11,0 km/h (2 Bft)
21.02.2011 00:52 21,4 C -3,2 C -1,8 C 71 % 0 % 1010 hPa 0,0 l/m 14,7 km/h (3 Bft)
21.02.2011 00:55 21,4 C -3,2 C -1,5 C 71 % 0 % 1010 hPa 0,0 l/m 11,9 km/h (2 Bft)
21.02.2011 00:57 21,4 C -3,2 C -1,7 C 72 % 0 % 1009 hPa 0,0 l/m 16,1 km/h (3 Bft)
21.02.2011 01:00 21,4 C -3,2 C -1,7 C 71 % 0 % 1009 hPa 0,0 l/m 11,5 km/h (2 Bft)
21.02.2011 01:04 21,4 C -3,2 C -1,6 C 71 % 0 % 1009 hPa 0,0 l/m 11,5 km/h (2 Bft)
21.02.2011 01:07 21,4 C -3,2 C -1,5 C 71 % 0 % 1009 hPa 0,0 l/m 7,8 km/h (2 Bft)
21.02.2011 01:10 21,4 C -3,2 C -1,5 C 71 % 0 % 1009 hPa 0,0 l/m 9,8 km/h (2 Bft)
21.02.2011 01:13 21,4 C -3,2 C -1,5 C 71 % 0 % 1009 hPa 0,0 l/m 9,1 km/h (2 Bft)
21.02.2011 01:16 21,4 C -3,3 C -1,5 C 71 % 0 % 1009 hPa 0,0 l/m 7,2 km/h (2 Bft)
21.02.2011 01:19 21,4 C -3,2 C -1,8 C 71 % 0 % 1009 hPa 0,0 l/m 10,3 km/h (2 Bft)
21.02.2011 01:21 21,4 C -3,2 C -1,6 C 71 % 0 % 1009 hPa 0,0 l/m 10,8 km/h (2 Bft)
21.02.2011 01:24 21,4 C -3,2 C -1,7 C 72 % 0 % 1009 hPa 0,0 l/m 10,8 km/h (2 Bft)
21.02.2011 01:27 21,4 C -3,2 C -1,6 C 72 % 0 % 1009 hPa 0,0 l/m 10,0 km/h (2 Bft)
21.02.2011 01:30 21,4 C -3,3 C -1,7 C 71 % 0 % 1009 hPa 0,0 l/m 6,7 km/h (2 Bft)
21.02.2011 01:34 21,4 C -3,3 C -1,6 C 71 % 0 % 1009 hPa 0,0 l/m 6,7 km/h (2 Bft)
21.02.2011 01:37 21,4 C -3,3 C -1,6 C 71 % 0 % 1009 hPa 0,0 l/m 7,8 km/h (2 Bft)
21.02.2011 01:40 21,4 C -3,3 C -1,9 C 71 % 0 % 1009 hPa 0,0 l/m 15,3 km/h (3 Bft)
21.02.2011 01:43 21,4 C -3,3 C -1,9 C 71 % 0 % 1009 hPa 0,0 l/m 12,1 km/h (2 Bft)
21.02.2011 01:46 21,4 C -3,3 C -1,5 C 71 % 0 % 1010 hPa 0,0 l/m 14,5 km/h (3 Bft)
21.02.2011 01:49 21,4 C -3,3 C -1,8 C 71 % 0 % 1010 hPa 0,0 l/m 13,0 km/h (3 Bft)
21.02.2011 01:51 21,4 C -3,3 C -1,7 C 71 % 0 % 1010 hPa 0,0 l/m 11,6 km/h (2 Bft)
21.02.2011 01:55 21,4 C -3,3 C -1,7 C 71 % 0 % 1010 hPa 0,0 l/m 10,6 km/h (2 Bft)
21.02.2011 01:58 21,4 C -3,3 C -1,6 C 71 % 0 % 1010 hPa 0,0 l/m 9,7 km/h (2 Bft)
21.02.2011 02:00 21,4 C -3,3 C -1,6 C 71 % 0 % 1010 hPa 0,0 l/m 6,5 km/h (2 Bft)
21.02.2011 02:04 21,4 C -3,3 C -1,3 C 71 % 0 % 1010 hPa 0,0 l/m 9,1 km/h (2 Bft)
21.02.2011 02:07 21,4 C -3,3 C -1,6 C 71 % 0 % 1009 hPa 0,0 l/m 7,6 km/h (2 Bft)
21.02.2011 02:10 21,4 C -3,3 C -1,5 C 71 % 0 % 1010 hPa 0,0 l/m 5,6 km/h (1 Bft)
21.02.2011 02:13 21,4 C -3,3 C -1,4 C 71 % 0 % 1010 hPa 0,0 l/m 5,6 km/h (1 Bft)
21.02.2011 02:16 21,4 C -3,3 C -1,5 C 71 % 0 % 1010 hPa 0,0 l/m 6,2 km/h (2 Bft)
21.02.2011 02:19 21,4 C -3,3 C -1,5 C 71 % 0 % 1010 hPa 0,0 l/m 8,2 km/h (2 Bft)
21.02.2011 02:21 21,4 C -3,3 C -1,4 C 71 % 0 % 1010 hPa 0,0 l/m 5,2 km/h (1 Bft)
21.02.2011 02:24 21,3 C -3,3 C -1,5 C 71 % 0 % 1010 hPa 0,0 l/m 8,5 km/h (2 Bft)
21.02.2011 02:27 21,4 C -3,4 C -1,5 C 71 % 0 % 1010 hPa 0,0 l/m 6,7 km/h (2 Bft)
21.02.2011 02:30 21,3 C -3,4 C -1,4 C 71 % 0 % 1010 hPa 0,0 l/m 3,3 km/h (1 Bft)
21.02.2011 02:34 21,4 C -3,4 C -1,5 C 71 % 0 % 1010 hPa 0,0 l/m 3,3 km/h (1 Bft)
21.02.2011 02:37 21,3 C -3,4 C -1,4 C 71 % 0 % 1010 hPa 0,0 l/m 7,0 km/h (2 Bft)
21.02.2011 02:40 21,3 C -3,4 C -1,4 C 71 % 0 % 1010 hPa 0,0 l/m 4,5 km/h (1 Bft)
21.02.2011 02:43 21,3 C -3,4 C -1,5 C 71 % 0 % 1010 hPa 0,0 l/m 5,6 km/h (1 Bft)
21.02.2011 02:46 21,3 C -3,4 C -1,6 C 71 % 0 % 1010 hPa 0,0 l/m 8,1 km/h (2 Bft)
21.02.2011 02:49 21,3 C -3,4 C -1,4 C 70 % 0 % 1010 hPa 0,0 l/m 5,2 km/h (1 Bft)
21.02.2011 02:51 21,3 C -3,4 C -1,4 C 70 % 0 % 1010 hPa 0,0 l/m 3,7 km/h (1 Bft)
21.02.2011 02:55 21,3 C -3,5 C -1,2 C 70 % 0 % 1010 hPa 0,0 l/m 7,8 km/h (2 Bft)
21.02.2011 02:58 21,3 C -3,5 C -1,5 C 70 % 0 % 1010 hPa 0,0 l/m 4,5 km/h (1 Bft)
21.02.2011 03:01 21,3 C -3,5 C -1,5 C 70 % 0 % 1010 hPa 0,0 l/m 5,4 km/h (1 Bft)
21.02.2011 03:04 21,4 C -3,5 C -1,6 C 70 % 0 % 1010 hPa 0,0 l/m 5,4 km/h (1 Bft)
21.02.2011 03:07 21,3 C -3,5 C -1,5 C 70 % 0 % 1010 hPa 0,0 l/m 5,4 km/h (1 Bft)
21.02.2011 03:10 21,4 C -3,5 C -1,6 C 70 % 0 % 1010 hPa 0,0 l/m 8,2 km/h (2 Bft)
21.02.2011 03:13 21,3 C -3,5 C -1,4 C 70 % 0 % 1010 hPa 0,0 l/m 5,2 km/h (1 Bft)
21.02.2011 03:16 21,3 C -3,5 C -1,6 C 70 % 0 % 1010 hPa 0,0 l/m 7,1 km/h (2 Bft)
21.02.2011 03:19 21,4 C -3,5 C -1,4 C 70 % 0 % 1010 hPa 0,0 l/m 7,1 km/h (2 Bft)
21.02.2011 03:21 21,3 C -3,5 C -1,6 C 70 % 0 % 1009 hPa 0,0 l/m 5,7 km/h (1 Bft)
21.02.2011 03:25 21,3 C -3,5 C -1,6 C 70 % 0 % 1009 hPa 0,0 l/m 3,7 km/h (1 Bft)
21.02.2011 03:27 21,4 C -3,5 C -1,3 C 70 % 0 % 1009 hPa 0,0 l/m 0,2 km/h (0 Bft)
21.02.2011 03:30 21,3 C -3,5 C -1,5 C 70 % 0 % 1009 hPa 0,0 l/m 2,1 km/h (1 Bft)
21.02.2011 03:34 21,3 C -3,6 C -1,7 C 70 % 0 % 1009 hPa 0,0 l/m 7,4 km/h (2 Bft)
21.02.2011 03:37 21,3 C -3,6 C -1,7 C 70 % 0 % 1009 hPa 0,0 l/m 7,8 km/h (2 Bft)
21.02.2011 03:40 21,4 C -3,6 C -1,5 C 70 % 0 % 1009 hPa 0,0 l/m 3,2 km/h (1 Bft)
21.02.2011 03:43 21,3 C -3,6 C -1,7 C 70 % 0 % 1009 hPa 0,0 l/m 6,8 km/h (2 Bft)
21.02.2011 03:46 21,3 C -3,6 C -1,7 C 70 % 0 % 1009 hPa 0,0 l/m 5,9 km/h (2 Bft)
21.02.2011 03:49 21,3 C -3,6 C -1,6 C 70 % 0 % 1009 hPa 0,0 l/m 1,3 km/h (1 Bft)
21.02.2011 03:51 21,3 C -3,6 C -1,6 C 70 % 0 % 1009 hPa 0,0 l/m 7,0 km/h (2 Bft)
21.02.2011 03:55 21,3 C -3,6 C -1,6 C 70 % 0 % 1010 hPa 0,0 l/m 10,0 km/h (2 Bft)
21.02.2011 03:58 21,3 C -3,6 C -1,8 C 70 % 0 % 1010 hPa 0,0 l/m 7,8 km/h (2 Bft)
21.02.2011 04:00 21,3 C -3,6 C -1,5 C 70 % 0 % 1010 hPa 0,0 l/m 5,9 km/h (2 Bft)
21.02.2011 04:04 21,3 C -3,6 C -1,5 C 71 % 0 % 1010 hPa 0,0 l/m 5,9 km/h (2 Bft)
21.02.2011 04:07 21,4 C -3,6 C -1,7 C 70 % 0 % 1010 hPa 0,0 l/m 7,8 km/h (2 Bft)
21.02.2011 04:10 21,4 C -3,6 C -1,7 C 70 % 0 % 1010 hPa 0,0 l/m 10,1 km/h (2 Bft)
21.02.2011 04:13 21,4 C -3,6 C -2,1 C 70 % 0 % 1010 hPa 0,0 l/m 6,9 km/h (2 Bft)
21.02.2011 04:16 21,4 C -3,6 C -1,8 C 70 % 0 % 1010 hPa 0,0 l/m 4,1 km/h (1 Bft)
21.02.2011 04:19 21,4 C -3,6 C -1,6 C 70 % 0 % 1010 hPa 0,0 l/m 1,2 km/h (1 Bft)
21.02.2011 04:22 21,4 C -3,6 C -1,5 C 70 % 0 % 1010 hPa 0,0 l/m 1,2 km/h (1 Bft)
21.02.2011 04:24 21,4 C -3,6 C -1,5 C 70 % 0 % 1010 hPa 0,0 l/m 4,8 km/h (1 Bft)
21.02.2011 04:27 21,5 C -3,6 C -1,4 C 70 % 0 % 1010 hPa 0,0 l/m 2,0 km/h (1 Bft)
21.02.2011 04:30 21,4 C -3,6 C -1,6 C 70 % 0 % 1010 hPa 0,0 l/m 1,2 km/h (1 Bft)
21.02.2011 04:34 21,4 C -3,6 C -1,6 C 70 % 0 % 1010 hPa 0,0 l/m 6,4 km/h (2 Bft)
21.02.2011 04:37 21,4 C -3,6 C -1,2 C 70 % 0 % 1010 hPa 0,0 l/m 3,9 km/h (1 Bft)
21.02.2011 04:39 21,4 C -3,6 C -1,5 C 70 % 0 % 1010 hPa 0,0 l/m 3,0 km/h (1 Bft)
21.02.2011 04:43 21,4 C -3,6 C -1,5 C 70 % 0 % 1010 hPa 0,0 l/m 3,2 km/h (1 Bft)
21.02.2011 04:46 21,4 C -3,6 C -1,3 C 70 % 0 % 1010 hPa 0,0 l/m 2,7 km/h (1 Bft)
21.02.2011 04:49 21,4 C -3,6 C -1,5 C 70 % 0 % 1010 hPa 0,0 l/m 4,4 km/h (1 Bft)
21.02.2011 04:51 21,4 C -3,6 C -1,6 C 70 % 0 % 1010 hPa 0,0 l/m 5,9 km/h (2 Bft)
21.02.2011 04:55 21,4 C -3,6 C -1,5 C 70 % 0 % 1010 hPa 0,0 l/m 5,4 km/h (1 Bft)
21.02.2011 04:58 21,4 C -3,6 C -1,4 C 70 % 0 % 1010 hPa 0,0 l/m 3,3 km/h (1 Bft)
21.02.2011 05:00 21,4 C -3,6 C -1,3 C 70 % 0 % 1010 hPa 0,0 l/m 0,6 km/h (0 Bft)
21.02.2011 05:04 21,4 C -3,6 C -1,4 C 70 % 0 % 1010 hPa 0,0 l/m 0,2 km/h (0 Bft)
21.02.2011 05:07 21,4 C -3,6 C -1,3 C 70 % 0 % 1010 hPa 0,0 l/m 2,9 km/h (1 Bft)
21.02.2011 05:10 21,4 C -3,6 C -1,3 C 70 % 0 % 1010 hPa 0,0 l/m 0,7 km/h (0 Bft)
21.02.2011 05:13 21,4 C -3,6 C -1,2 C 70 % 0 % 1010 hPa 0,0 l/m 2,1 km/h (1 Bft)
21.02.2011 05:16 21,4 C -3,6 C -1,3 C 70 % 0 % 1010 hPa 0,0 l/m 0,6 km/h (0 Bft)
21.02.2011 05:19 21,4 C -3,6 C -1,5 C 70 % 0 % 1010 hPa 0,0 l/m 5,2 km/h (1 Bft)
21.02.2011 05:21 21,4 C -3,6 C -1,4 C 70 % 0 % 1010 hPa 0,0 l/m 0,4 km/h (0 Bft)
21.02.2011 05:25 21,5 C -3,6 C -1,5 C 70 % 0 % 1010 hPa 0,0 l/m 0,4 km/h (0 Bft)
21.02.2011 05:27 21,5 C -3,6 C -1,5 C 70 % 0 % 1010 hPa 0,0 l/m 3,5 km/h (1 Bft)
21.02.2011 05:30 21,4 C -3,6 C -1,4 C 70 % 0 % 1010 hPa 0,0 l/m 1,2 km/h (1 Bft)
21.02.2011 05:34 21,4 C -3,6 C -1,3 C 70 % 0 % 1010 hPa 0,0 l/m 2,1 km/h (1 Bft)
21.02.2011 05:37 21,5 C -3,6 C -1,3 C 70 % 0 % 1010 hPa 0,0 l/m 2,1 km/h (1 Bft)
21.02.2011 05:40 21,5 C -3,6 C -1,3 C 70 % 0 % 1010 hPa 0,0 l/m 0,7 km/h (0 Bft)
21.02.2011 05:43 21,5 C -3,6 C -1,4 C 70 % 0 % 1010 hPa 0,0 l/m 0,3 km/h (0 Bft)
21.02.2011 05:46 21,5 C -3,6 C -1,4 C 70 % 0 % 1010 hPa 0,0 l/m 1,4 km/h (1 Bft)
21.02.2011 05:49 21,5 C -3,6 C -1,5 C 70 % 0 % 1010 hPa 0,0 l/m 2,1 km/h (1 Bft)
21.02.2011 05:52 21,5 C -3,6 C -1,5 C 70 % 0 % 1010 hPa 0,0 l/m 1,9 km/h (1 Bft)
21.02.2011 05:55 21,5 C -3,6 C -1,5 C 70 % 0 % 1010 hPa 0,0 l/m 4,3 km/h (1 Bft)
21.02.2011 05:57 21,5 C -3,6 C -1,6 C 70 % 0 % 1010 hPa 0,0 l/m 4,2 km/h (1 Bft)
21.02.2011 06:00 21,5 C -3,6 C -1,4 C 70 % 0 % 1010 hPa 0,0 l/m 0,6 km/h (0 Bft)
21.02.2011 06:04 21,5 C -3,6 C -1,6 C 70 % 0 % 1010 hPa 0,0 l/m 4,0 km/h (1 Bft)
21.02.2011 06:07 21,5 C -3,6 C -1,5 C 70 % 0 % 1010 hPa 0,0 l/m 0,7 km/h (0 Bft)
21.02.2011 06:10 21,5 C -3,6 C -1,5 C 70 % 0 % 1010 hPa 0,0 l/m 0,7 km/h (0 Bft)
21.02.2011 06:13 21,5 C -3,6 C -1,3 C 70 % 0 % 1010 hPa 0,0 l/m 1,2 km/h (1 Bft)
21.02.2011 06:16 21,5 C -3,6 C -1,5 C 70 % 0 % 1010 hPa 0,0 l/m 5,0 km/h (1 Bft)
21.02.2011 06:19 21,5 C -3,6 C -1,2 C 70 % 0 % 1010 hPa 0,0 l/m 0,4 km/h (0 Bft)
21.02.2011 06:21 21,6 C -3,6 C -1,6 C 70 % 0 % 1010 hPa 0,0 l/m 4,5 km/h (1 Bft)
21.02.2011 06:24 21,6 C -3,6 C -1,4 C 70 % 0 % 1010 hPa 0,0 l/m 4,5 km/h (1 Bft)
21.02.2011 06:27 21,6 C -3,6 C -1,4 C 70 % 0 % 1010 hPa 0,0 l/m 0,6 km/h (0 Bft)
21.02.2011 06:30 21,6 C -3,6 C -1,4 C 70 % 0 % 1010 hPa 0,0 l/m 3,7 km/h (1 Bft)
21.02.2011 06:34 21,7 C -3,6 C -1,5 C 70 % 0 % 1010 hPa 0,0 l/m 1,7 km/h (1 Bft)
21.02.2011 06:37 21,7 C -3,6 C -1,5 C 70 % 0 % 1010 hPa 0,0 l/m 1,7 km/h (1 Bft)
21.02.2011 06:40 21,7 C -3,6 C -1,6 C 70 % 0 % 1010 hPa 0,0 l/m 3,4 km/h (1 Bft)
21.02.2011 06:43 21,8 C -3,7 C -1,6 C 70 % 0 % 1010 hPa 0,0 l/m 3,4 km/h (1 Bft)
21.02.2011 06:46 21,8 C -3,7 C -1,7 C 70 % 0 % 1010 hPa 0,0 l/m 2,1 km/h (1 Bft)
21.02.2011 06:49 21,8 C -3,7 C -1,8 C 70 % 0 % 1010 hPa 0,0 l/m 6,3 km/h (2 Bft)
21.02.2011 06:52 21,8 C -3,7 C -1,6 C 70 % 0 % 1010 hPa 0,0 l/m 5,4 km/h (1 Bft)
21.02.2011 06:55 21,9 C -3,7 C -1,9 C 70 % 0 % 1010 hPa 0,0 l/m 7,4 km/h (2 Bft)
21.02.2011 06:58 21,6 C -3,6 C -1,9 C 70 % 0 % 1010 hPa 0,0 l/m 6,5 km/h (2 Bft)
21.02.2011 07:01 20,1 C -3,6 C -1,9 C 70 % 0 % 1010 hPa 0,0 l/m 7,6 km/h (2 Bft)
21.02.2011 07:04 18,5 C -3,6 C -2,0 C 71 % 0 % 1010 hPa 0,0 l/m 6,5 km/h (2 Bft)
21.02.2011 07:07 17,7 C -3,6 C -2,1 C 71 % 0 % 1010 hPa 0,0 l/m 6,8 km/h (2 Bft)
21.02.2011 07:10 17,9 C -3,6 C -2,0 C 71 % 0 % 1010 hPa 0,0 l/m 7,5 km/h (2 Bft)
21.02.2011 07:13 18,4 C -3,6 C -1,9 C 71 % 0 % 1011 hPa 0,0 l/m 5,9 km/h (2 Bft)
21.02.2011 07:16 18,8 C -3,6 C -1,9 C 71 % 0 % 1011 hPa 0,0 l/m 5,9 km/h (2 Bft)
21.02.2011 07:19 18,8 C -3,6 C -1,9 C 71 % 0 % 1011 hPa 0,0 l/m 7,2 km/h (2 Bft)
21.02.2011 07:22 18,8 C -3,6 C -2,0 C 71 % 0 % 1011 hPa 0,0 l/m 7,6 km/h (2 Bft)
21.02.2011 07:24 20,1 C -3,6 C -2,0 C 71 % 0 % 1011 hPa 0,0 l/m 9,6 km/h (2 Bft)
21.02.2011 07:27 20,3 C -3,7 C -2,2 C 70 % 0 % 1011 hPa 0,0 l/m 8,9 km/h (2 Bft)
21.02.2011 07:30 20,4 C -3,7 C -2,2 C 69 % 0 % 1011 hPa 0,0 l/m 12,5 km/h (3 Bft)
21.02.2011 07:34 20,6 C -3,8 C -2,2 C 69 % 0 % 1011 hPa 0,0 l/m 12,2 km/h (2 Bft)
21.02.2011 07:37 20,7 C -3,8 C -2,2 C 69 % 0 % 1011 hPa 0,0 l/m 12,5 km/h (3 Bft)
21.02.2011 07:40 20,8 C -3,8 C -2,1 C 69 % 0 % 1011 hPa 0,0 l/m 9,3 km/h (2 Bft)
21.02.2011 07:43 20,8 C -3,8 C -2,1 C 69 % 0 % 1011 hPa 0,0 l/m 10,3 km/h (2 Bft)
21.02.2011 07:46 20,9 C -3,8 C -2,1 C 69 % 0 % 1011 hPa 0,0 l/m 8,1 km/h (2 Bft)
21.02.2011 07:49 20,9 C -3,8 C -2,0 C 69 % 0 % 1011 hPa 0,0 l/m 11,5 km/h (2 Bft)
21.02.2011 07:52 21,0 C -3,8 C -1,9 C 70 % 0 % 1011 hPa 0,0 l/m 8,9 km/h (2 Bft)
21.02.2011 07:55 21,0 C -3,8 C -1,9 C 71 % 0 % 1011 hPa 0,0 l/m 9,1 km/h (2 Bft)
21.02.2011 07:58 21,1 C -3,8 C -2,0 C 72 % 0 % 1011 hPa 0,0 l/m 9,1 km/h (2 Bft)
21.02.2011 08:01 21,2 C -3,9 C -2,0 C 73 % 0 % 1011 hPa 0,0 l/m 10,5 km/h (2 Bft)
21.02.2011 08:04 21,2 C -3,9 C -2,1 C 73 % 0 % 1011 hPa 0,0 l/m 12,7 km/h (3 Bft)
21.02.2011 08:07 21,2 C -3,9 C -2,1 C 74 % 0 % 1011 hPa 0,0 l/m 11,5 km/h (2 Bft)
21.02.2011 08:10 21,2 C -3,9 C -2,2 C 74 % 0 % 1011 hPa 0,0 l/m 11,5 km/h (2 Bft)
21.02.2011 08:13 21,2 C -4,0 C -2,3 C 75 % 0 % 1011 hPa 0,0 l/m 15,3 km/h (3 Bft)
21.02.2011 08:16 21,2 C -4,0 C -2,1 C 75 % 0 % 1011 hPa 0,0 l/m 9,8 km/h (2 Bft)
21.02.2011 08:19 21,2 C -4,0 C -2,0 C 75 % 0 % 1011 hPa 0,0 l/m 8,5 km/h (2 Bft)
21.02.2011 08:22 21,2 C -4,0 C -2,0 C 75 % 0 % 1011 hPa 0,0 l/m 11,9 km/h (2 Bft)
21.02.2011 08:25 21,2 C -4,0 C -2,0 C 76 % 0 % 1011 hPa 0,0 l/m 8,1 km/h (2 Bft)
21.02.2011 08:28 21,2 C -4,0 C -2,1 C 76 % 0 % 1011 hPa 0,0 l/m 11,5 km/h (2 Bft)
21.02.2011 08:30 21,2 C -4,0 C -2,1 C 76 % 0 % 1011 hPa 0,0 l/m 11,5 km/h (2 Bft)
21.02.2011 08:34 21,2 C -4,1 C -2,0 C 76 % 0 % 1011 hPa 0,0 l/m 12,3 km/h (3 Bft)
21.02.2011 08:37 21,2 C -4,1 C -2,3 C 76 % 0 % 1011 hPa 0,0 l/m 12,2 km/h (2 Bft)
21.02.2011 08:40 21,2 C -4,1 C -2,2 C 76 % 0 % 1011 hPa 0,0 l/m 12,2 km/h (2 Bft)
21.02.2011 08:43 21,2 C -4,2 C -2,1 C 75 % 0 % 1011 hPa 0,0 l/m 10,0 km/h (2 Bft)
21.02.2011 08:46 21,3 C -4,2 C -2,3 C 75 % 0 % 1011 hPa 0,0 l/m 11,8 km/h (2 Bft)
21.02.2011 08:49 21,2 C -4,2 C -2,4 C 75 % 0 % 1011 hPa 0,0 l/m 13,0 km/h (3 Bft)
21.02.2011 08:52 21,2 C -4,2 C -2,4 C 75 % 0 % 1011 hPa 0,0 l/m 12,0 km/h (2 Bft)
21.02.2011 08:55 21,2 C -4,2 C -2,3 C 76 % 0 % 1011 hPa 0,0 l/m 11,3 km/h (2 Bft)
21.02.2011 08:58 21,2 C -4,2 C -2,3 C 76 % 0 % 1011 hPa 0,0 l/m 9,9 km/h (2 Bft)
21.02.2011 09:00 21,2 C -4,2 C -2,2 C 76 % 0 % 1011 hPa 0,0 l/m 11,3 km/h (2 Bft)
21.02.2011 09:04 21,2 C -4,2 C -2,1 C 76 % 0 % 1011 hPa 0,0 l/m 10,2 km/h (2 Bft)
21.02.2011 09:07 21,2 C -4,2 C -2,1 C 76 % 0 % 1011 hPa 0,0 l/m 10,6 km/h (2 Bft)
21.02.2011 09:10 21,2 C -4,2 C -2,3 C 76 % 0 % 1011 hPa 0,0 l/m 10,2 km/h (2 Bft)
21.02.2011 09:13 21,2 C -4,2 C -2,0 C 76 % 0 % 1011 hPa 0,0 l/m 11,8 km/h (2 Bft)
21.02.2011 09:16 21,2 C -4,2 C -2,1 C 76 % 0 % 1011 hPa 0,0 l/m 11,5 km/h (2 Bft)
21.02.2011 09:19 21,2 C -4,2 C -2,1 C 76 % 0 % 1011 hPa 0,0 l/m 13,3 km/h (3 Bft)
21.02.2011 09:22 21,3 C -4,2 C -2,1 C 75 % 0 % 1011 hPa 0,0 l/m 8,8 km/h (2 Bft)
21.02.2011 09:25 21,3 C -4,2 C -2,0 C 75 % 0 % 1011 hPa 0,0 l/m 16,1 km/h (3 Bft)
21.02.2011 09:28 21,3 C -4,2 C -2,2 C 75 % 0 % 1011 hPa 0,0 l/m 14,1 km/h (3 Bft)
21.02.2011 09:30 21,2 C -4,3 C -2,2 C 75 % 0 % 1011 hPa 0,0 l/m 14,2 km/h (3 Bft)
21.02.2011 09:34 21,3 C -4,3 C -2,1 C 76 % 0 % 1011 hPa 0,0 l/m 11,1 km/h (2 Bft)
21.02.2011 09:37 21,3 C -4,2 C -2,1 C 76 % 0 % 1011 hPa 0,0 l/m 10,7 km/h (2 Bft)
21.02.2011 09:40 21,3 C -4,3 C -2,3 C 75 % 0 % 1011 hPa 0,0 l/m 13,5 km/h (3 Bft)
21.02.2011 09:43 21,3 C -4,3 C -2,3 C 75 % 0 % 1011 hPa 0,0 l/m 13,5 km/h (3 Bft)
21.02.2011 09:46 21,2 C -4,3 C -2,3 C 75 % 0 % 1011 hPa 0,0 l/m 16,0 km/h (3 Bft)
21.02.2011 09:49 21,3 C -4,3 C -2,2 C 75 % 0 % 1011 hPa 0,0 l/m 14,7 km/h (3 Bft)
21.02.2011 09:52 21,3 C -4,3 C -2,2 C 74 % 0 % 1011 hPa 0,0 l/m 13,5 km/h (3 Bft)
21.02.2011 09:55 21,2 C -4,3 C -2,0 C 75 % 0 % 1011 hPa 0,0 l/m 13,4 km/h (3 Bft)
21.02.2011 09:58 21,2 C -4,2 C -1,9 C 75 % 0 % 1011 hPa 0,0 l/m 12,9 km/h (3 Bft)
21.02.2011 10:01 21,3 C -4,3 C -2,0 C 75 % 0 % 1011 hPa 0,0 l/m 14,5 km/h (3 Bft)
21.02.2011 10:04 21,3 C -4,3 C -2,0 C 75 % 0 % 1011 hPa 0,0 l/m 14,6 km/h (3 Bft)
21.02.2011 10:07 21,3 C -4,3 C -2,1 C 75 % 0 % 1011 hPa 0,0 l/m 15,6 km/h (3 Bft)
21.02.2011 10:10 21,3 C -4,2 C -1,8 C 75 % 0 % 1011 hPa 0,0 l/m 14,1 km/h (3 Bft)
21.02.2011 10:13 21,3 C -4,2 C -1,8 C 75 % 0 % 1011 hPa 0,0 l/m 12,8 km/h (3 Bft)
21.02.2011 10:16 21,3 C -4,2 C -2,1 C 75 % 0 % 1011 hPa 0,0 l/m 12,6 km/h (3 Bft)
21.02.2011 10:19 21,3 C -4,2 C -1,8 C 75 % 0 % 1011 hPa 0,0 l/m 14,6 km/h (3 Bft)
21.02.2011 10:22 21,3 C -4,2 C -1,8 C 75 % 0 % 1011 hPa 0,0 l/m 14,7 km/h (3 Bft)
21.02.2011 10:25 21,3 C -4,2 C -1,8 C 75 % 0 % 1011 hPa 0,0 l/m 14,7 km/h (3 Bft)
21.02.2011 10:28 21,3 C -4,2 C -2,0 C 74 % 0 % 1011 hPa 0,0 l/m 14,3 km/h (3 Bft)
21.02.2011 10:30 21,3 C -4,2 C -1,8 C 75 % 0 % 1011 hPa 0,0 l/m 15,0 km/h (3 Bft)
21.02.2011 10:34 21,3 C -4,1 C -1,8 C 74 % 0 % 1011 hPa 0,0 l/m 15,0 km/h (3 Bft)
21.02.2011 10:37 21,3 C -4,1 C -1,4 C 74 % 0 % 1011 hPa 0,0 l/m 16,8 km/h (3 Bft)
21.02.2011 10:40 21,3 C -4,1 C -1,4 C 74 % 0 % 1011 hPa 0,0 l/m 12,8 km/h (3 Bft)
21.02.2011 10:43 21,3 C -4,1 C -1,6 C 74 % 0 % 1011 hPa 0,0 l/m 13,7 km/h (3 Bft)
21.02.2011 10:46 21,3 C -4,1 C -1,7 C 74 % 0 % 1011 hPa 0,0 l/m 12,6 km/h (3 Bft)
21.02.2011 10:49 21,3 C -4,0 C -1,4 C 74 % 0 % 1011 hPa 0,0 l/m 10,7 km/h (2 Bft)
21.02.2011 10:52 21,3 C -4,0 C -1,8 C 74 % 0 % 1011 hPa 0,0 l/m 10,7 km/h (2 Bft)
21.02.2011 10:55 21,3 C -4,0 C -1,8 C 74 % 0 % 1011 hPa 0,0 l/m 12,0 km/h (2 Bft)
21.02.2011 10:58 21,4 C -4,2 C -1,8 C 73 % 0 % 1011 hPa 0,0 l/m 12,5 km/h (3 Bft)
21.02.2011 11:01 21,3 C -4,2 C -1,9 C 73 % 0 % 1011 hPa 0,0 l/m 15,0 km/h (3 Bft)
21.02.2011 11:04 21,3 C -4,2 C -1,7 C 73 % 0 % 1011 hPa 0,0 l/m 15,5 km/h (3 Bft)
21.02.2011 11:07 21,3 C -4,1 C -1,6 C 73 % 0 % 1011 hPa 0,0 l/m 15,5 km/h (3 Bft)
21.02.2011 11:10 21,3 C -4,0 C -1,5 C 73 % 0 % 1011 hPa 0,0 l/m 12,0 km/h (2 Bft)
21.02.2011 11:13 21,3 C -4,0 C -1,6 C 73 % 0 % 1011 hPa 0,0 l/m 13,8 km/h (3 Bft)
21.02.2011 11:16 21,3 C -4,0 C -1,5 C 73 % 0 % 1011 hPa 0,0 l/m 14,7 km/h (3 Bft)
21.02.2011 11:19 21,3 C -4,0 C -1,4 C 73 % 0 % 1011 hPa 0,0 l/m 12,1 km/h (2 Bft)
21.02.2011 11:22 21,3 C -3,9 C -1,5 C 73 % 0 % 1011 hPa 0,0 l/m 16,1 km/h (3 Bft)
21.02.2011 11:24 21,3 C -4,0 C -1,6 C 72 % 0 % 1011 hPa 0,0 l/m 15,3 km/h (3 Bft)
21.02.2011 11:27 21,3 C -4,0 C -1,6 C 72 % 0 % 1011 hPa 0,0 l/m 14,8 km/h (3 Bft)
21.02.2011 11:30 21,3 C -4,0 C -1,6 C 72 % 0 % 1011 hPa 0,0 l/m 16,8 km/h (3 Bft)
21.02.2011 11:34 21,3 C -4,0 C -1,4 C 72 % 0 % 1011 hPa 0,0 l/m 16,8 km/h (3 Bft)
21.02.2011 11:37 21,3 C -4,0 C -1,4 C 72 % 0 % 1011 hPa 0,0 l/m 16,8 km/h (3 Bft)
21.02.2011 11:40 21,3 C -3,9 C -1,6 C 72 % 0 % 1011 hPa 0,0 l/m 15,8 km/h (3 Bft)
21.02.2011 11:43 21,3 C -4,0 C -1,6 C 72 % 0 % 1011 hPa 0,0 l/m 12,3 km/h (3 Bft)
21.02.2011 11:46 21,3 C -4,0 C -1,6 C 72 % 0 % 1011 hPa 0,0 l/m 14,1 km/h (3 Bft)
21.02.2011 11:49 21,3 C -3,9 C -1,5 C 72 % 0 % 1011 hPa 0,0 l/m 13,5 km/h (3 Bft)
21.02.2011 11:52 21,3 C -3,9 C -1,5 C 72 % 0 % 1011 hPa 0,0 l/m 16,6 km/h (3 Bft)
21.02.2011 11:55 21,3 C -3,9 C -1,5 C 72 % 0 % 1011 hPa 0,0 l/m 18,6 km/h (3 Bft)
21.02.2011 11:58 21,3 C -4,0 C -1,7 C 71 % 0 % 1011 hPa 0,0 l/m 10,5 km/h (2 Bft)
21.02.2011 12:01 21,2 C -3,9 C -1,7 C 72 % 0 % 1011 hPa 0,0 l/m 11,1 km/h (2 Bft)
21.02.2011 12:04 21,3 C -3,9 C -1,5 C 72 % 0 % 1011 hPa 0,0 l/m 11,3 km/h (2 Bft)
21.02.2011 12:07 21,3 C -3,8 C -1,2 C 72 % 0 % 1011 hPa 0,0 l/m 7,4 km/h (2 Bft)
21.02.2011 12:10 21,3 C -3,8 C -1,3 C 72 % 0 % 1011 hPa 0,0 l/m 13,1 km/h (3 Bft)
21.02.2011 12:13 21,3 C -3,8 C -1,4 C 72 % 0 % 1011 hPa 0,0 l/m 9,6 km/h (2 Bft)
21.02.2011 12:16 21,3 C -3,8 C -1,6 C 72 % 0 % 1011 hPa 0,0 l/m 12,5 km/h (3 Bft)
21.02.2011 12:19 21,3 C -3,8 C -1,5 C 71 % 0 % 1011 hPa 0,0 l/m 11,6 km/h (2 Bft)
21.02.2011 12:21 21,3 C -3,8 C -1,3 C 71 % 0 % 1011 hPa 0,0 l/m 11,9 km/h (2 Bft)
21.02.2011 12:24 21,3 C -3,7 C -1,3 C 71 % 0 % 1011 hPa 0,0 l/m 8,4 km/h (2 Bft)
21.02.2011 12:27 21,2 C -3,7 C -1,3 C 71 % 0 % 1011 hPa 0,0 l/m 11,2 km/h (2 Bft)
21.02.2011 12:30 21,2 C -3,6 C -1,1 C 71 % 0 % 1011 hPa 0,0 l/m 11,9 km/h (2 Bft)
21.02.2011 12:34 21,3 C -3,5 C -0,6 C 71 % 0 % 1011 hPa 0,0 l/m 6,9 km/h (2 Bft)
21.02.2011 12:37 21,3 C -3,5 C -0,8 C 71 % 0 % 1011 hPa 0,0 l/m 6,3 km/h (2 Bft)
21.02.2011 12:40 21,2 C -3,6 C -1,1 C 70 % 0 % 1010 hPa 0,0 l/m 13,3 km/h (3 Bft)
21.02.2011 12:43 21,2 C -3,6 C -0,7 C 70 % 0 % 1010 hPa 0,0 l/m 14,3 km/h (3 Bft)
21.02.2011 12:46 21,2 C -3,4 C -0,8 C 70 % 0 % 1010 hPa 0,0 l/m 9,3 km/h (2 Bft)
21.02.2011 12:49 21,2 C -3,4 C -0,9 C 70 % 0 % 1010 hPa 0,0 l/m 8,8 km/h (2 Bft)
21.02.2011 12:52 21,2 C -3,5 C -1,3 C 70 % 0 % 1010 hPa 0,0 l/m 13,5 km/h (3 Bft)
21.02.2011 12:55 21,2 C -3,5 C -1,1 C 70 % 0 % 1010 hPa 0,0 l/m 13,3 km/h (3 Bft)
21.02.2011 12:58 21,2 C -3,5 C -1,3 C 70 % 0 % 1010 hPa 0,0 l/m 9,5 km/h (2 Bft)
21.02.2011 13:01 21,2 C -3,5 C -1,2 C 70 % 0 % 1010 hPa 0,0 l/m 10,8 km/h (2 Bft)
21.02.2011 13:04 21,2 C -3,6 C -1,2 C 70 % 0 % 1010 hPa 0,0 l/m 13,4 km/h (3 Bft)
21.02.2011 13:07 21,3 C -3,5 C -1,1 C 70 % 0 % 1010 hPa 0,0 l/m 10,8 km/h (2 Bft)
21.02.2011 13:10 21,3 C -3,5 C -1,1 C 70 % 0 % 1010 hPa 0,0 l/m 10,6 km/h (2 Bft)
21.02.2011 13:13 21,2 C -3,5 C -1,2 C 70 % 0 % 1010 hPa 0,0 l/m 13,5 km/h (3 Bft)
21.02.2011 13:16 21,2 C -3,3 C -0,8 C 70 % 0 % 1010 hPa 0,0 l/m 13,3 km/h (3 Bft)
21.02.2011 13:19 21,2 C -3,3 C -0,6 C 70 % 0 % 1010 hPa 0,0 l/m 7,7 km/h (2 Bft)
21.02.2011 13:22 21,2 C -3,3 C -1,1 C 69 % 0 % 1010 hPa 0,0 l/m 12,8 km/h (3 Bft)
21.02.2011 13:25 21,3 C -3,4 C -1,1 C 70 % 0 % 1010 hPa 0,0 l/m 7,8 km/h (2 Bft)
21.02.2011 13:28 21,3 C -3,3 C -0,8 C 70 % 0 % 1010 hPa 0,0 l/m 7,7 km/h (2 Bft)
21.02.2011 13:31 21,3 C -3,3 C -0,9 C 69 % 0 % 1010 hPa 0,0 l/m 11,1 km/h (2 Bft)
21.02.2011 13:34 21,2 C -3,3 C -0,7 C 69 % 0 % 1010 hPa 0,0 l/m 6,5 km/h (2 Bft)
21.02.2011 13:37 21,2 C -3,3 C -1,1 C 69 % 0 % 1010 hPa 0,0 l/m 10,3 km/h (2 Bft)
21.02.2011 13:40 21,3 C -3,3 C -1,2 C 69 % 0 % 1010 hPa 0,0 l/m 8,5 km/h (2 Bft)
21.02.2011 13:43 21,2 C -3,4 C -1,3 C 69 % 0 % 1010 hPa 0,0 l/m 9,3 km/h (2 Bft)
21.02.2011 13:46 21,3 C -3,3 C -1,0 C 69 % 0 % 1010 hPa 0,0 l/m 6,1 km/h (2 Bft)
21.02.2011 13:49 21,3 C -3,3 C -1,2 C 69 % 0 % 1010 hPa 0,0 l/m 12,0 km/h (2 Bft)
21.02.2011 13:52 21,3 C -3,3 C -1,1 C 69 % 0 % 1010 hPa 0,0 l/m 9,4 km/h (2 Bft)
21.02.2011 13:55 21,3 C -3,3 C -1,2 C 69 % 0 % 1010 hPa 0,0 l/m 10,0 km/h (2 Bft)
21.02.2011 13:58 21,3 C -3,3 C -1,2 C 68 % 0 % 1010 hPa 0,0 l/m 10,0 km/h (2 Bft)
21.02.2011 14:01 21,3 C -3,3 C -1,2 C 69 % 0 % 1010 hPa 0,0 l/m 11,5 km/h (2 Bft)
21.02.2011 14:04 21,4 C -3,3 C -1,1 C 69 % 0 % 1010 hPa 0,0 l/m 11,5 km/h (2 Bft)
21.02.2011 14:07 21,4 C -3,2 C -1,0 C 69 % 0 % 1010 hPa 0,0 l/m 8,9 km/h (2 Bft)
21.02.2011 14:10 21,4 C -3,2 C -1,2 C 69 % 0 % 1010 hPa 0,0 l/m 7,6 km/h (2 Bft)
21.02.2011 14:13 21,4 C -3,3 C -1,5 C 69 % 0 % 1010 hPa 0,0 l/m 11,5 km/h (2 Bft)
21.02.2011 14:16 21,4 C -3,3 C -1,5 C 69 % 0 % 1010 hPa 0,0 l/m 10,1 km/h (2 Bft)
21.02.2011 14:19 21,4 C -3,3 C -1,4 C 69 % 0 % 1010 hPa 0,0 l/m 6,4 km/h (2 Bft)
21.02.2011 14:22 21,3 C -3,3 C -1,4 C 68 % 0 % 1010 hPa 0,0 l/m 7,5 km/h (2 Bft)
21.02.2011 14:25 21,4 C -3,3 C -1,3 C 69 % 0 % 1010 hPa 0,0 l/m 6,9 km/h (2 Bft)
21.02.2011 14:28 21,4 C -3,3 C -1,3 C 69 % 0 % 1010 hPa 0,0 l/m 6,7 km/h (2 Bft)
21.02.2011 14:31 21,3 C -3,2 C -1,4 C 68 % 0 % 1010 hPa 0,0 l/m 4,7 km/h (1 Bft)
21.02.2011 14:34 21,4 C -3,2 C -1,3 C 68 % 0 % 1010 hPa 0,0 l/m 3,3 km/h (1 Bft)
21.02.2011 14:37 21,4 C -3,2 C -1,2 C 68 % 0 % 1010 hPa 0,0 l/m 7,1 km/h (2 Bft)
21.02.2011 14:40 21,3 C -3,2 C -1,4 C 68 % 0 % 1010 hPa 0,0 l/m 7,4 km/h (2 Bft)
21.02.2011 14:43 21,3 C -3,2 C -1,5 C 68 % 0 % 1010 hPa 0,0 l/m 6,5 km/h (2 Bft)
21.02.2011 14:46 21,3 C -3,2 C -1,1 C 68 % 0 % 1010 hPa 0,0 l/m 4,5 km/h (1 Bft)
21.02.2011 14:49 21,3 C -3,2 C -1,0 C 68 % 0 % 1010 hPa 0,0 l/m 4,5 km/h (1 Bft)
21.02.2011 14:52 21,4 C -3,1 C -1,3 C 68 % 0 % 1010 hPa 0,0 l/m 6,3 km/h (2 Bft)
21.02.2011 14:55 21,5 C -3,1 C -1,1 C 67 % 0 % 1010 hPa 0,0 l/m 5,2 km/h (1 Bft)
21.02.2011 14:58 21,5 C -3,1 C -1,4 C 68 % 0 % 1010 hPa 0,0 l/m 10,0 km/h (2 Bft)
21.02.2011 15:01 21,6 C -3,1 C -1,4 C 67 % 0 % 1010 hPa 0,0 l/m 2,7 km/h (1 Bft)
21.02.2011 15:04 21,6 C -3,2 C -1,3 C 66 % 0 % 1010 hPa 0,0 l/m 7,9 km/h (2 Bft)
21.02.2011 15:07 21,7 C -3,1 C -1,3 C 67 % 0 % 1010 hPa 0,0 l/m 7,6 km/h (2 Bft)
21.02.2011 15:10 21,8 C -3,1 C -1,3 C 67 % 0 % 1010 hPa 0,0 l/m 5,3 km/h (1 Bft)
21.02.2011 15:13 21,8 C -3,1 C -1,0 C 66 % 0 % 1010 hPa 0,0 l/m 5,4 km/h (1 Bft)
21.02.2011 15:16 21,8 C -3,0 C -0,9 C 66 % 0 % 1010 hPa 0,0 l/m 5,4 km/h (1 Bft)
21.02.2011 15:19 21,9 C -3,0 C -0,8 C 66 % 0 % 1010 hPa 0,0 l/m 0,3 km/h (0 Bft)
21.02.2011 15:22 21,9 C -3,0 C -1,1 C 66 % 0 % 1010 hPa 0,0 l/m 2,5 km/h (1 Bft)
21.02.2011 15:25 21,9 C -3,0 C -1,1 C 66 % 0 % 1010 hPa 0,0 l/m 0,6 km/h (0 Bft)
21.02.2011 15:28 21,8 C -3,0 C -1,1 C 66 % 0 % 1010 hPa 0,0 l/m 0,6 km/h (0 Bft)
21.02.2011 15:30 21,8 C -3,0 C -1,4 C 65 % 0 % 1010 hPa 0,0 l/m 6,2 km/h (2 Bft)
21.02.2011 15:34 21,8 C -3,0 C -1,1 C 65 % 0 % 1010 hPa 0,0 l/m 7,0 km/h (2 Bft)
21.02.2011 15:37 21,8 C -3,0 C -1,2 C 65 % 0 % 1010 hPa 0,0 l/m 4,9 km/h (1 Bft)
21.02.2011 15:40 21,8 C -3,0 C -1,4 C 64 % 0 % 1010 hPa 0,0 l/m 7,4 km/h (2 Bft)
21.02.2011 15:43 21,8 C -3,0 C -1,1 C 65 % 0 % 1010 hPa 0,0 l/m 7,4 km/h (2 Bft)
21.02.2011 15:46 21,8 C -3,0 C -1,1 C 65 % 0 % 1010 hPa 0,0 l/m 3,8 km/h (1 Bft)
21.02.2011 15:48 21,7 C -3,0 C -1,3 C 65 % 0 % 1010 hPa 0,0 l/m 6,8 km/h (2 Bft)
21.02.2011 15:51 21,7 C -3,0 C -1,4 C 64 % 0 % 1010 hPa 0,0 l/m 7,2 km/h (2 Bft)
21.02.2011 15:55 21,7 C -3,0 C -1,2 C 64 % 0 % 1010 hPa 0,0 l/m 3,2 km/h (1 Bft)
21.02.2011 15:58 21,7 C -3,0 C -1,3 C 64 % 0 % 1010 hPa 0,0 l/m 5,0 km/h (1 Bft)
21.02.2011 16:01 21,7 C -3,0 C -1,5 C 64 % 0 % 1010 hPa 0,0 l/m 5,0 km/h (1 Bft)
21.02.2011 16:04 21,7 C -3,1 C -1,4 C 64 % 0 % 1010 hPa 0,0 l/m 0,6 km/h (0 Bft)
21.02.2011 16:07 21,7 C -3,1 C -1,6 C 64 % 0 % 1010 hPa 0,0 l/m 4,6 km/h (1 Bft)
21.02.2011 16:10 21,7 C -3,1 C -1,4 C 64 % 0 % 1010 hPa 0,0 l/m 3,8 km/h (1 Bft)
21.02.2011 16:13 21,6 C -3,1 C -1,5 C 63 % 0 % 1010 hPa 0,0 l/m 7,2 km/h (2 Bft)
21.02.2011 16:16 21,6 C -3,1 C -1,6 C 63 % 0 % 1010 hPa 0,0 l/m 8,3 km/h (2 Bft)
21.02.2011 16:19 21,6 C -3,1 C -1,6 C 63 % 0 % 1010 hPa 0,0 l/m 6,6 km/h (2 Bft)
21.02.2011 16:22 21,6 C -3,1 C -1,4 C 63 % 0 % 1010 hPa 0,0 l/m 7,0 km/h (2 Bft)
21.02.2011 16:25 21,6 C -3,0 C -1,5 C 63 % 0 % 1010 hPa 0,0 l/m 8,4 km/h (2 Bft)
21.02.2011 16:27 21,6 C -3,0 C -1,4 C 63 % 0 % 1010 hPa 0,0 l/m 3,4 km/h (1 Bft)
21.02.2011 16:30 21,6 C -3,1 C -1,5 C 63 % 0 % 1010 hPa 0,0 l/m 7,4 km/h (2 Bft)
21.02.2011 16:34 21,6 C -3,1 C -1,5 C 63 % 0 % 1010 hPa 0,0 l/m 6,7 km/h (2 Bft)
21.02.2011 16:37 21,6 C -3,1 C -1,5 C 63 % 0 % 1010 hPa 0,0 l/m 4,5 km/h (1 Bft)
21.02.2011 16:40 21,6 C -3,1 C -1,6 C 62 % 0 % 1010 hPa 0,0 l/m 9,7 km/h (2 Bft)
21.02.2011 16:43 21,7 C -3,2 C -1,5 C 62 % 0 % 1010 hPa 0,0 l/m 10,3 km/h (2 Bft)
21.02.2011 16:46 21,6 C -3,2 C -1,6 C 62 % 0 % 1010 hPa 0,0 l/m 7,0 km/h (2 Bft)
21.02.2011 16:49 21,6 C -3,2 C -1,5 C 62 % 0 % 1010 hPa 0,0 l/m 8,8 km/h (2 Bft)
21.02.2011 16:52 21,7 C -3,2 C -1,6 C 62 % 0 % 1010 hPa 0,0 l/m 7,4 km/h (2 Bft)
21.02.2011 16:55 21,7 C -3,3 C -1,7 C 62 % 0 % 1010 hPa 0,0 l/m 10,4 km/h (2 Bft)
21.02.2011 16:58 21,6 C -3,3 C -1,8 C 61 % 0 % 1010 hPa 0,0 l/m 11,6 km/h (2 Bft)
21.02.2011 17:01 21,6 C -3,3 C -1,9 C 61 % 0 % 1010 hPa 0,0 l/m 11,0 km/h (2 Bft)
21.02.2011 17:04 21,6 C -3,3 C -2,0 C 61 % 0 % 1010 hPa 0,0 l/m 11,8 km/h (2 Bft)
21.02.2011 17:07 21,6 C -3,4 C -2,1 C 61 % 0 % 1010 hPa 0,0 l/m 12,5 km/h (3 Bft)
21.02.2011 17:10 21,6 C -3,4 C -2,1 C 61 % 0 % 1010 hPa 0,0 l/m 12,5 km/h (3 Bft)
21.02.2011 17:13 21,6 C -3,4 C -1,8 C 60 % 0 % 1010 hPa 0,0 l/m 9,4 km/h (2 Bft)
21.02.2011 17:16 21,7 C -3,5 C -2,1 C 61 % 0 % 1010 hPa 0,0 l/m 7,9 km/h (2 Bft)
21.02.2011 17:19 21,7 C -3,5 C -1,9 C 61 % 0 % 1010 hPa 0,0 l/m 9,8 km/h (2 Bft)
21.02.2011 17:22 21,7 C -3,4 C -2,0 C 61 % 0 % 1010 hPa 0,0 l/m 7,2 km/h (2 Bft)
21.02.2011 17:25 21,7 C -3,5 C -2,0 C 61 % 0 % 1010 hPa 0,0 l/m 7,8 km/h (2 Bft)
21.02.2011 17:27 21,6 C -3,5 C -2,2 C 61 % 0 % 1010 hPa 0,0 l/m 8,6 km/h (2 Bft)
21.02.2011 17:30 21,6 C -3,6 C -2,1 C 61 % 0 % 1010 hPa 0,0 l/m 7,4 km/h (2 Bft)
21.02.2011 17:34 21,6 C -3,6 C -2,1 C 61 % 0 % 1010 hPa 0,0 l/m 6,7 km/h (2 Bft)
21.02.2011 17:37 21,6 C -3,6 C -2,2 C 61 % 0 % 1010 hPa 0,0 l/m 10,0 km/h (2 Bft)
21.02.2011 17:40 21,6 C -3,6 C -2,1 C 61 % 0 % 1010 hPa 0,0 l/m 7,2 km/h (2 Bft)
21.02.2011 17:43 21,6 C -3,6 C -2,2 C 60 % 0 % 1010 hPa 0,0 l/m 10,7 km/h (2 Bft)
21.02.2011 17:46 21,6 C -3,6 C -2,3 C 60 % 0 % 1010 hPa 0,0 l/m 11,0 km/h (2 Bft)
21.02.2011 17:49 21,6 C -3,6 C -2,3 C 60 % 0 % 1010 hPa 0,0 l/m 12,0 km/h (2 Bft)
21.02.2011 17:52 21,6 C -3,6 C -2,3 C 60 % 0 % 1010 hPa 0,0 l/m 12,0 km/h (2 Bft)
21.02.2011 17:55 21,6 C -3,6 C -2,4 C 60 % 0 % 1010 hPa 0,0 l/m 12,8 km/h (3 Bft)
21.02.2011 17:58 21,6 C -3,6 C -2,4 C 60 % 0 % 1010 hPa 0,0 l/m 13,6 km/h (3 Bft)
21.02.2011 18:01 21,6 C -3,7 C -2,3 C 60 % 0 % 1010 hPa 0,0 l/m 11,1 km/h (2 Bft)
21.02.2011 18:04 21,6 C -3,7 C -2,3 C 60 % 0 % 1010 hPa 0,0 l/m 13,7 km/h (3 Bft)
21.02.2011 18:07 21,6 C -3,7 C -2,4 C 61 % 0 % 1009 hPa 0,0 l/m 9,6 km/h (2 Bft)
21.02.2011 18:10 21,6 C -3,7 C -2,3 C 61 % 0 % 1009 hPa 0,0 l/m 11,7 km/h (2 Bft)
21.02.2011 18:13 21,6 C -3,7 C -2,3 C 62 % 0 % 1009 hPa 0,0 l/m 9,8 km/h (2 Bft)
21.02.2011 18:16 21,6 C -3,7 C -2,4 C 62 % 0 % 1009 hPa 0,0 l/m 11,8 km/h (2 Bft)
21.02.2011 18:19 21,6 C -3,7 C -2,4 C 62 % 0 % 1009 hPa 0,0 l/m 13,7 km/h (3 Bft)
21.02.2011 18:22 21,6 C -3,7 C -2,6 C 62 % 0 % 1009 hPa 0,0 l/m 13,1 km/h (3 Bft)
21.02.2011 18:25 21,6 C -3,8 C -2,5 C 62 % 0 % 1009 hPa 0,0 l/m 18,1 km/h (3 Bft)
21.02.2011 18:28 21,6 C -3,7 C -2,4 C 62 % 0 % 1009 hPa 0,0 l/m 15,1 km/h (3 Bft)
21.02.2011 18:30 21,6 C -3,8 C -2,3 C 62 % 0 % 1009 hPa 0,0 l/m 12,3 km/h (3 Bft)
21.02.2011 18:34 21,7 C -3,8 C -2,4 C 62 % 0 % 1009 hPa 0,0 l/m 11,1 km/h (2 Bft)
21.02.2011 18:37 21,8 C -3,8 C -2,4 C 62 % 0 % 1009 hPa 0,0 l/m 12,1 km/h (2 Bft)
21.02.2011 18:40 22,0 C -3,8 C -2,4 C 62 % 0 % 1009 hPa 0,0 l/m 9,3 km/h (2 Bft)
21.02.2011 18:43 22,1 C -3,8 C -2,5 C 62 % 0 % 1010 hPa 0,0 l/m 14,7 km/h (3 Bft)
21.02.2011 18:46 22,2 C -3,8 C -2,5 C 62 % 0 % 1010 hPa 0,0 l/m 14,1 km/h (3 Bft)
21.02.2011 18:49 22,2 C -3,8 C -2,4 C 62 % 0 % 1010 hPa 0,0 l/m 10,9 km/h (2 Bft)
21.02.2011 18:52 22,2 C -3,8 C -2,2 C 62 % 0 % 1010 hPa 0,0 l/m 7,4 km/h (2 Bft)
21.02.2011 18:55 22,0 C -3,8 C -2,2 C 62 % 0 % 1010 hPa 0,0 l/m 7,4 km/h (2 Bft)
21.02.2011 18:58 20,5 C -3,8 C -2,2 C 62 % 0 % 1010 hPa 0,0 l/m 7,4 km/h (2 Bft)
21.02.2011 19:01 19,1 C -3,8 C -2,6 C 62 % 0 % 1010 hPa 0,0 l/m 12,8 km/h (3 Bft)
21.02.2011 19:04 18,8 C -3,8 C -2,4 C 62 % 0 % 1010 hPa 0,0 l/m 11,0 km/h (2 Bft)
21.02.2011 19:07 19,1 C -3,8 C -2,3 C 62 % 0 % 1010 hPa 0,0 l/m 9,8 km/h (2 Bft)
21.02.2011 19:10 19,4 C -3,8 C -2,4 C 63 % 0 % 1010 hPa 0,0 l/m 10,0 km/h (2 Bft)
21.02.2011 19:13 20,1 C -3,8 C -2,4 C 63 % 0 % 1010 hPa 0,0 l/m 9,8 km/h (2 Bft)
21.02.2011 19:16 20,4 C -3,8 C -2,4 C 63 % 0 % 1009 hPa 0,0 l/m 9,8 km/h (2 Bft)
21.02.2011 19:19 20,6 C -3,8 C -2,4 C 63 % 0 % 1009 hPa 0,0 l/m 9,8 km/h (2 Bft)
21.02.2011 19:22 20,7 C -3,8 C -2,4 C 64 % 0 % 1009 hPa 0,0 l/m 10,1 km/h (2 Bft)
21.02.2011 19:25 20,9 C -3,8 C -2,5 C 64 % 0 % 1009 hPa 0,0 l/m 12,0 km/h (2 Bft)
21.02.2011 19:28 21,0 C -3,9 C -2,4 C 64 % 0 % 1010 hPa 0,0 l/m 9,5 km/h (2 Bft)
21.02.2011 19:30 21,1 C -3,9 C -2,2 C 64 % 0 % 1010 hPa 0,0 l/m 7,0 km/h (2 Bft)
21.02.2011 19:34 21,2 C -3,9 C -2,4 C 64 % 0 % 1009 hPa 0,0 l/m 9,0 km/h (2 Bft)
21.02.2011 19:37 21,2 C -3,9 C -2,4 C 64 % 0 % 1009 hPa 0,0 l/m 9,0 km/h (2 Bft)
21.02.2011 19:40 21,3 C -3,9 C -2,2 C 64 % 0 % 1009 hPa 0,0 l/m 7,1 km/h (2 Bft)
21.02.2011 19:43 21,3 C -3,9 C -2,3 C 64 % 0 % 1009 hPa 0,0 l/m 7,2 km/h (2 Bft)
21.02.2011 19:46 21,3 C -4,0 C -2,3 C 64 % 0 % 1009 hPa 0,0 l/m 7,2 km/h (2 Bft)
21.02.2011 19:49 21,4 C -4,0 C -2,4 C 64 % 0 % 1009 hPa 0,0 l/m 10,5 km/h (2 Bft)
21.02.2011 19:52 21,4 C -4,0 C -2,3 C 64 % 0 % 1009 hPa 0,0 l/m 8,3 km/h (2 Bft)
21.02.2011 19:55 21,6 C -4,0 C -2,6 C 64 % 0 % 1009 hPa 0,0 l/m 12,3 km/h (3 Bft)
21.02.2011 19:58 21,6 C -4,0 C -2,6 C 65 % 0 % 1009 hPa 0,0 l/m 12,6 km/h (3 Bft)
21.02.2011 20:01 21,5 C -4,0 C -2,5 C 65 % 0 % 1009 hPa 0,0 l/m 13,5 km/h (3 Bft)
21.02.2011 20:04 21,5 C -4,0 C -2,7 C 65 % 0 % 1009 hPa 0,0 l/m 13,2 km/h (3 Bft)
21.02.2011 20:07 21,5 C -4,0 C -2,6 C 65 % 0 % 1009 hPa 0,0 l/m 13,8 km/h (3 Bft)
21.02.2011 20:10 21,5 C -4,1 C -2,7 C 64 % 0 % 1009 hPa 0,0 l/m 12,1 km/h (2 Bft)
21.02.2011 20:13 21,6 C -4,1 C -2,5 C 64 % 0 % 1009 hPa 0,0 l/m 11,3 km/h (2 Bft)
21.02.2011 20:16 21,5 C -4,1 C -2,2 C 65 % 0 % 1009 hPa 0,0 l/m 6,9 km/h (2 Bft)
21.02.2011 20:19 21,5 C -4,1 C -2,2 C 65 % 0 % 1009 hPa 0,0 l/m 6,7 km/h (2 Bft)
21.02.2011 20:22 21,5 C -4,2 C -2,6 C 65 % 0 % 1009 hPa 0,0 l/m 11,5 km/h (2 Bft)
21.02.2011 20:25 21,5 C -4,2 C -2,7 C 64 % 0 % 1009 hPa 0,0 l/m 13,8 km/h (3 Bft)
21.02.2011 20:28 21,5 C -4,2 C -2,6 C 64 % 0 % 1009 hPa 0,0 l/m 10,2 km/h (2 Bft)
21.02.2011 20:31 21,5 C -4,2 C -2,5 C 64 % 0 % 1009 hPa 0,0 l/m 10,0 km/h (2 Bft)
21.02.2011 20:34 21,5 C -4,2 C -2,7 C 64 % 0 % 1009 hPa 0,0 l/m 12,0 km/h (2 Bft)
21.02.2011 20:37 21,5 C -4,3 C -2,7 C 64 % 0 % 1009 hPa 0,0 l/m 14,3 km/h (3 Bft)
21.02.2011 20:40 21,5 C -4,3 C -2,8 C 64 % 0 % 1009 hPa 0,0 l/m 13,5 km/h (3 Bft)
21.02.2011 20:43 21,5 C -4,3 C -2,7 C 64 % 0 % 1009 hPa 0,0 l/m 12,3 km/h (3 Bft)
21.02.2011 20:46 21,5 C -4,3 C -2,7 C 64 % 0 % 1009 hPa 0,0 l/m 9,9 km/h (2 Bft)
21.02.2011 20:49 21,5 C -4,4 C -3,0 C 64 % 0 % 1009 hPa 0,0 l/m 14,1 km/h (3 Bft)
21.02.2011 20:52 21,5 C -4,4 C -3,1 C 63 % 0 % 1009 hPa 0,0 l/m 15,2 km/h (3 Bft)
21.02.2011 20:55 21,5 C -4,4 C -2,8 C 63 % 0 % 1009 hPa 0,0 l/m 10,5 km/h (2 Bft)
21.02.2011 20:58 21,5 C -4,4 C -2,7 C 64 % 0 % 1009 hPa 0,0 l/m 8,3 km/h (2 Bft)
21.02.2011 21:01 21,6 C -4,4 C -2,7 C 64 % 0 % 1009 hPa 0,0 l/m 10,0 km/h (2 Bft)
21.02.2011 21:04 21,5 C -4,4 C -2,7 C 65 % 0 % 1009 hPa 0,0 l/m 12,0 km/h (2 Bft)
21.02.2011 21:07 21,5 C -4,4 C -2,8 C 64 % 0 % 1009 hPa 0,0 l/m 12,0 km/h (2 Bft)
21.02.2011 21:10 21,5 C -4,4 C -2,9 C 64 % 0 % 1009 hPa 0,0 l/m 12,5 km/h (3 Bft)
21.02.2011 21:13 21,5 C -4,5 C -2,9 C 64 % 0 % 1009 hPa 0,0 l/m 9,8 km/h (2 Bft)
21.02.2011 21:16 21,5 C -4,5 C -2,5 C 64 % 0 % 1009 hPa 0,0 l/m 7,3 km/h (2 Bft)
21.02.2011 21:19 21,5 C -4,5 C -2,5 C 64 % 0 % 1009 hPa 0,0 l/m 11,0 km/h (2 Bft)
21.02.2011 21:22 21,5 C -4,5 C -2,3 C 64 % 0 % 1009 hPa 0,0 l/m 6,9 km/h (2 Bft)
21.02.2011 21:25 21,5 C -4,5 C -2,4 C 64 % 0 % 1009 hPa 0,0 l/m 10,6 km/h (2 Bft)
21.02.2011 21:28 21,5 C -4,5 C -2,6 C 64 % 0 % 1009 hPa 0,0 l/m 9,2 km/h (2 Bft)
21.02.2011 21:31 21,5 C -4,5 C -2,2 C 64 % 0 % 1009 hPa 0,0 l/m 1,0 km/h (0 Bft)
21.02.2011 21:34 21,5 C -4,5 C -2,2 C 64 % 0 % 1009 hPa 0,0 l/m 6,4 km/h (2 Bft)
21.02.2011 21:37 21,4 C -4,5 C -2,2 C 64 % 0 % 1009 hPa 0,0 l/m 3,9 km/h (1 Bft)
21.02.2011 21:40 21,5 C -4,5 C -2,4 C 64 % 0 % 1009 hPa 0,0 l/m 7,2 km/h (2 Bft)
21.02.2011 21:43 21,5 C -4,5 C -2,4 C 64 % 0 % 1009 hPa 0,0 l/m 5,7 km/h (1 Bft)
21.02.2011 21:46 21,5 C -4,5 C -2,3 C 64 % 0 % 1009 hPa 0,0 l/m 6,1 km/h (2 Bft)
21.02.2011 21:49 21,4 C -4,5 C -2,3 C 65 % 0 % 1009 hPa 0,0 l/m 6,0 km/h (2 Bft)
21.02.2011 21:52 21,4 C -4,5 C -2,6 C 65 % 0 % 1009 hPa 0,0 l/m 6,0 km/h (2 Bft)
21.02.2011 21:55 21,4 C -4,5 C -2,5 C 64 % 0 % 1009 hPa 0,0 l/m 7,8 km/h (2 Bft)
21.02.2011 21:58 21,4 C -4,5 C -2,7 C 64 % 0 % 1009 hPa 0,0 l/m 5,8 km/h (2 Bft)
21.02.2011 22:01 21,4 C -4,5 C -2,5 C 64 % 0 % 1009 hPa 0,0 l/m 9,1 km/h (2 Bft)
21.02.2011 22:04 21,4 C -4,5 C -2,6 C 64 % 0 % 1009 hPa 0,0 l/m 9,6 km/h (2 Bft)
21.02.2011 22:07 21,4 C -4,5 C -2,7 C 64 % 0 % 1009 hPa 0,0 l/m 12,6 km/h (3 Bft)
21.02.2011 22:10 21,4 C -4,5 C -2,9 C 64 % 0 % 1009 hPa 0,0 l/m 11,6 km/h (2 Bft)
21.02.2011 22:13 21,4 C -4,5 C -2,9 C 64 % 0 % 1009 hPa 0,0 l/m 11,5 km/h (2 Bft)
21.02.2011 22:16 21,4 C -4,5 C -2,8 C 64 % 0 % 1008 hPa 0,0 l/m 12,3 km/h (3 Bft)
21.02.2011 22:19 21,4 C -4,5 C -3,0 C 64 % 0 % 1008 hPa 0,0 l/m 11,8 km/h (2 Bft)
21.02.2011 22:22 21,4 C -4,5 C -3,0 C 64 % 0 % 1008 hPa 0,0 l/m 15,5 km/h (3 Bft)
21.02.2011 22:25 21,4 C -4,5 C -2,9 C 64 % 0 % 1008 hPa 0,0 l/m 15,3 km/h (3 Bft)
21.02.2011 22:28 21,4 C -4,5 C -3,0 C 64 % 0 % 1008 hPa 0,0 l/m 11,7 km/h (2 Bft)
21.02.2011 22:31 21,4 C -4,5 C -2,8 C 64 % 0 % 1008 hPa 0,0 l/m 11,9 km/h (2 Bft)
21.02.2011 22:34 21,4 C -4,5 C -2,9 C 64 % 0 % 1009 hPa 0,0 l/m 11,9 km/h (2 Bft)
21.02.2011 22:37 21,4 C -4,5 C -2,9 C 64 % 0 % 1009 hPa 0,0 l/m 12,3 km/h (3 Bft)
21.02.2011 22:40 21,4 C -4,5 C -2,9 C 64 % 0 % 1009 hPa 0,0 l/m 9,8 km/h (2 Bft)
21.02.2011 22:43 21,4 C -4,5 C -3,0 C 64 % 0 % 1008 hPa 0,0 l/m 12,2 km/h (2 Bft)
21.02.2011 22:46 21,4 C -4,5 C -3,0 C 64 % 0 % 1008 hPa 0,0 l/m 14,1 km/h (3 Bft)
21.02.2011 22:49 21,4 C -4,5 C -3,0 C 63 % 0 % 1008 hPa 0,0 l/m 14,1 km/h (3 Bft)
21.02.2011 22:52 21,4 C -4,5 C -3,0 C 64 % 0 % 1008 hPa 0,0 l/m 11,0 km/h (2 Bft)
21.02.2011 22:55 21,4 C -4,5 C -3,0 C 64 % 0 % 1008 hPa 0,0 l/m 11,1 km/h (2 Bft)
21.02.2011 22:58 21,4 C -4,6 C -2,9 C 63 % 0 % 1008 hPa 0,0 l/m 11,1 km/h (2 Bft)
21.02.2011 23:01 21,4 C -4,6 C -3,0 C 63 % 0 % 1008 hPa 0,0 l/m 10,3 km/h (2 Bft)
21.02.2011 23:04 21,4 C -4,6 C -3,1 C 63 % 0 % 1008 hPa 0,0 l/m 13,7 km/h (3 Bft)
21.02.2011 23:07 21,4 C -4,6 C -3,1 C 63 % 0 % 1008 hPa 0,0 l/m 13,9 km/h (3 Bft)
21.02.2011 23:10 21,4 C -4,7 C -3,2 C 63 % 0 % 1008 hPa 0,0 l/m 15,5 km/h (3 Bft)
21.02.2011 23:13 21,4 C -4,7 C -3,2 C 62 % 0 % 1008 hPa 0,0 l/m 15,1 km/h (3 Bft)
21.02.2011 23:16 21,4 C -4,7 C -3,3 C 63 % 0 % 1008 hPa 0,0 l/m 15,5 km/h (3 Bft)
21.02.2011 23:19 21,4 C -4,7 C -3,3 C 63 % 0 % 1008 hPa 0,0 l/m 19,2 km/h (3 Bft)
21.02.2011 23:22 21,4 C -4,7 C -3,1 C 62 % 0 % 1008 hPa 0,0 l/m 14,2 km/h (3 Bft)
21.02.2011 23:25 21,4 C -4,7 C -3,1 C 62 % 0 % 1008 hPa 0,0 l/m 13,0 km/h (3 Bft)
21.02.2011 23:28 21,4 C -4,7 C -3,0 C 62 % 0 % 1008 hPa 0,0 l/m 11,5 km/h (2 Bft)
21.02.2011 23:31 21,4 C -4,7 C -3,0 C 62 % 0 % 1008 hPa 0,0 l/m 9,4 km/h (2 Bft)
21.02.2011 23:34 21,4 C -4,7 C -3,0 C 62 % 0 % 1008 hPa 0,0 l/m 13,3 km/h (3 Bft)
21.02.2011 23:37 21,4 C -4,7 C -3,1 C 62 % 0 % 1008 hPa 0,0 l/m 15,1 km/h (3 Bft)
21.02.2011 23:40 21,4 C -4,7 C -2,9 C 62 % 0 % 1008 hPa 0,0 l/m 11,1 km/h (2 Bft)
21.02.2011 23:43 21,4 C -4,7 C -3,1 C 62 % 0 % 1008 hPa 0,0 l/m 11,4 km/h (2 Bft)
21.02.2011 23:46 21,4 C -4,7 C -3,0 C 62 % 0 % 1008 hPa 0,0 l/m 9,6 km/h (2 Bft)
21.02.2011 23:49 21,4 C -4,7 C -3,1 C 62 % 0 % 1008 hPa 0,0 l/m 11,8 km/h (2 Bft)
21.02.2011 23:51 21,4 C -4,7 C -3,1 C 62 % 0 % 1008 hPa 0,0 l/m 10,6 km/h (2 Bft)
21.02.2011 23:54 21,4 C -4,7 C -2,9 C 62 % 0 % 1008 hPa 0,0 l/m 9,4 km/h (2 Bft)
21.02.2011 23:57 21,4 C -4,7 C -2,6 C 62 % 0 % 1008 hPa 0,0 l/m 6,0 km/h (2 Bft)
_ Min-Zeit 07:07 23:10 23:16 17:13 - 22:16 - 03:27
Minimum _ 17,7 C -4,7 C -3,3 C 60 % - 1008 hPa - 0,2 km/h (0 Bft)
_ Max-Zeit 18:46 00:00 12:34 08:25 00:00 07:13 00:00 23:19
Maximum _ 22,2 C -2,9 C -0,6 C 76 % 0 % 1011 hPa 0,0 l/m 19,2 km/h
O-SO (3 Bft)
Durchschnitt _ 21,3 C -3,7 C -1,9 C 68 % #0 min. 1010 hPa #0,0 l/m 9,1 km/h (2 Bft)